Time,TemperatureF,DewpointF,PressureIn,WindDirection,WindDirectionDegrees,WindSpeedMPH,WindSpeedGustMPH,Humidity,HourlyPrecipIn,Conditions,Clouds,dailyrainin,SoftwareType,DateUTC
2013-11-19 00:01:00,53.7,41.8,30.20,North,355,0.0,1.0,64,0.00,,,0.00,WeatherCatV1.02B3,2013-11-19 06:01:00,
2013-11-19 00:06:00,53.5,41.6,30.20,North,0,2.0,5.0,64,0.00,,,0.00,WeatherCatV1.02B3,2013-11-19 06:06:00,
2013-11-19 00:11:00,53.4,41.5,30.19,NE,55,0.0,3.0,64,0.00,,,0.00,WeatherCatV1.02B3,2013-11-19 06:11:00,
2013-11-19 00:16:00,53.3,41.4,30.19,NNE,25,0.0,2.0,64,0.00,,,0.00,WeatherCatV1.02B3,2013-11-19 06:16:00,
2013-11-19 00:21:00,53.1,41.2,30.19,NE,36,0.0,1.0,64,0.00,,,0.00,WeatherCatV1.02B3,2013-11-19 06:21:00,
2013-11-19 00:26:00,53.0,41.6,30.20,NW,314,0.0,2.0,65,0.00,,,0.00,WeatherCatV1.02B3,2013-11-19 06:26:00,
2013-11-19 00:31:00,52.9,41.5,30.20,NNW,336,0.0,2.0,65,0.00,,,0.00,WeatherCatV1.02B3,2013-11-19 06:31:00,
2013-11-19 00:36:00,52.8,41.4,30.20,North,0,0.0,4.0,65,0.00,,,0.00,WeatherCatV1.02B3,2013-11-19 06:36:00,
2013-11-19 00:41:00,52.7,41.3,30.20,NNE,17,0.0,1.0,65,0.00,,,0.00,WeatherCatV1.02B3,2013-11-19 06:41:00,
2013-11-19 00:46:00,52.6,41.2,30.19,North,9,0.0,5.0,65,0.00,,,0.00,WeatherCatV1.02B3,2013-11-19 06:46:00,
2013-11-19 00:51:00,52.5,41.1,30.20,North,355,0.0,2.0,65,0.00,,,0.00,WeatherCatV1.02B3,2013-11-19 06:51:00,
2013-11-19 00:56:00,52.3,40.9,30.20,North,355,0.0,2.0,65,0.00,,,0.00,WeatherCatV1.02B3,2013-11-19 06:56:00,
2013-11-19 01:01:00,52.2,40.8,30.19,North,355,0.0,0.0,65,0.00,,,0.00,WeatherCatV1.02B3,2013-11-19 07:01:00,
2013-11-19 01:06:00,52.1,40.7,30.20,NNE,30,0.0,2.0,65,0.00,,,0.00,WeatherCatV1.02B3,2013-11-19 07:06:00,
2013-11-19 01:11:00,52.0,41.0,30.20,NNW,347,0.0,0.0,66,0.00,,,0.00,WeatherCatV1.02B3,2013-11-19 07:11:00,
2013-11-19 01:16:00,51.9,40.5,30.20,NNW,347,0.0,0.0,65,0.00,,,0.00,WeatherCatV1.02B3,2013-11-19 07:16:00,
2013-11-19 01:21:00,51.9,40.5,30.20,NNW,336,0.0,4.0,65,0.00,,,0.00,WeatherCatV1.02B3,2013-11-19 07:21:00,
2013-11-19 01:26:00,51.8,40.4,30.20,NNE,15,0.0,1.0,65,0.00,,,0.00,WeatherCatV1.02B3,2013-11-19 07:26:00,
2013-11-19 01:31:00,51.8,40.4,30.20,North,355,0.0,0.0,65,0.00,,,0.00,WeatherCatV1.02B3,2013-11-19 07:31:00,
2013-11-19 01:36:00,51.9,40.1,30.20,NNW,346,0.0,2.0,64,0.00,,,0.00,WeatherCatV1.02B3,2013-11-19 07:36:00,
2013-11-19 01:41:00,51.8,40.0,30.20,North,0,0.0,2.0,64,0.00,,,0.00,WeatherCatV1.02B3,2013-11-19 07:41:00,
2013-11-19 01:46:00,51.7,39.5,30.20,NNW,342,0.0,5.0,63,0.00,,,0.00,WeatherCatV1.02B3,2013-11-19 07:46:00,
2013-11-19 01:51:00,51.6,39.8,30.19,NNE,31,0.0,0.0,64,0.00,,,0.00,WeatherCatV1.02B3,2013-11-19 07:51:00,
2013-11-19 01:56:00,51.5,39.7,30.20,NE,39,0.0,0.0,64,0.00,,,0.00,WeatherCatV1.02B3,2013-11-19 07:56:00,
2013-11-19 02:01:00,51.5,39.3,30.20,NNE,28,0.0,1.0,63,0.00,,,0.00,WeatherCatV1.02B3,2013-11-19 08:01:00,
2013-11-19 02:06:00,51.4,39.6,30.20,North,350,0.0,3.0,64,0.00,,,0.00,WeatherCatV1.02B3,2013-11-19 08:06:00,
2013-11-19 02:11:00,51.4,39.6,30.20,NNW,336,0.0,0.0,64,0.00,,,0.00,WeatherCatV1.02B3,2013-11-19 08:11:00,
2013-11-19 02:16:00,51.2,39.4,30.20,NNE,33,0.0,1.0,64,0.00,,,0.00,WeatherCatV1.02B3,2013-11-19 08:16:00,
2013-11-19 02:21:00,51.1,39.4,30.20,NNW,344,0.0,3.0,64,0.00,,,0.00,WeatherCatV1.02B3,2013-11-19 08:21:00,
2013-11-19 02:26:00,51.0,39.3,30.20,NNE,26,0.0,3.0,64,0.00,,,0.00,WeatherCatV1.02B3,2013-11-19 08:26:00,
2013-11-19 02:31:00,51.0,38.9,30.20,NNE,26,0.0,1.0,63,0.00,,,0.00,WeatherCatV1.02B3,2013-11-19 08:31:00,
2013-11-19 02:36:00,50.9,38.8,30.20,ENE,65,0.0,2.0,63,0.00,,,0.00,WeatherCatV1.02B3,2013-11-19 08:36:00,
2013-11-19 02:41:00,50.8,38.7,30.21,NW,321,0.0,2.0,63,0.00,,,0.00,WeatherCatV1.02B3,2013-11-19 08:41:00,
2013-11-19 02:46:00,50.8,38.3,30.21,NNE,32,0.0,5.0,62,0.00,,,0.00,WeatherCatV1.02B3,2013-11-19 08:46:00,
2013-11-19 02:51:00,50.7,38.2,30.20,North,0,0.0,3.0,62,0.00,,,0.00,WeatherCatV1.02B3,2013-11-19 08:51:00,
2013-11-19 02:56:00,50.6,38.1,30.20,NNW,346,2.0,3.0,62,0.00,,,0.00,WeatherCatV1.02B3,2013-11-19 08:56:00,
2013-11-19 03:01:00,50.6,38.1,30.20,North,351,0.0,1.0,62,0.00,,,0.00,WeatherCatV1.02B3,2013-11-19 09:01:00,
2013-11-19 03:06:00,50.6,37.7,30.20,NNE,30,2.0,3.0,61,0.00,,,0.00,WeatherCatV1.02B3,2013-11-19 09:06:00,
2013-11-19 03:11:00,50.6,37.7,30.20,NNE,33,0.0,4.0,61,0.00,,,0.00,WeatherCatV1.02B3,2013-11-19 09:11:00,
2013-11-19 03:16:00,50.6,37.7,30.20,ENE,73,0.0,3.0,61,0.00,,,0.00,WeatherCatV1.02B3,2013-11-19 09:16:00,
2013-11-19 03:21:00,50.5,37.6,30.21,NNE,23,1.0,4.0,61,0.00,,,0.00,WeatherCatV1.02B3,2013-11-19 09:21:00,
2013-11-19 03:26:00,50.5,37.6,30.21,North,9,0.0,0.0,61,0.00,,,0.00,WeatherCatV1.02B3,2013-11-19 09:26:00,
2013-11-19 03:31:00,50.4,37.0,30.20,North,5,3.0,3.0,60,0.00,,,0.00,WeatherCatV1.02B3,2013-11-19 09:31:00,
2013-11-19 03:36:00,50.4,37.0,30.20,NE,34,0.0,4.0,60,0.00,,,0.00,WeatherCatV1.02B3,2013-11-19 09:36:00,
2013-11-19 03:41:00,50.4,37.0,30.21,NNE,17,1.0,6.0,60,0.00,,,0.00,WeatherCatV1.02B3,2013-11-19 09:41:00,
2013-11-19 03:46:00,50.3,37.0,30.21,NE,34,0.0,5.0,60,0.00,,,0.00,WeatherCatV1.02B3,2013-11-19 09:46:00,
2013-11-19 03:51:00,50.3,37.0,30.21,North,355,0.0,0.0,60,0.00,,,0.00,WeatherCatV1.02B3,2013-11-19 09:51:00,
2013-11-19 03:56:00,50.2,36.9,30.22,NNE,26,3.0,3.0,60,0.00,,,0.00,WeatherCatV1.02B3,2013-11-19 09:56:00,
2013-11-19 04:01:00,50.2,36.9,30.22,NE,50,0.0,1.0,60,0.00,,,0.00,WeatherCatV1.02B3,2013-11-19 10:01:00,
2013-11-19 04:06:00,50.1,36.8,30.22,NE,51,0.0,3.0,60,0.00,,,0.00,WeatherCatV1.02B3,2013-11-19 10:06:00,
2013-11-19 04:11:00,50.1,36.8,30.22,NNE,15,0.0,3.0,60,0.00,,,0.00,WeatherCatV1.02B3,2013-11-19 10:11:00,
2013-11-19 04:16:00,50.1,36.8,30.22,North,351,0.0,3.0,60,0.00,,,0.00,WeatherCatV1.02B3,2013-11-19 10:16:00,
2013-11-19 04:21:00,50.1,36.8,30.22,NNW,330,2.0,2.0,60,0.00,,,0.00,WeatherCatV1.02B3,2013-11-19 10:21:00,
2013-11-19 04:26:00,50.0,36.2,30.22,NNE,24,0.0,3.0,59,0.00,,,0.00,WeatherCatV1.02B3,2013-11-19 10:26:00,
2013-11-19 04:31:00,49.9,36.1,30.22,North,11,0.0,6.0,59,0.00,,,0.00,WeatherCatV1.02B3,2013-11-19 10:31:00,
2013-11-19 04:36:00,49.8,36.1,30.22,NE,34,0.0,7.0,59,0.00,,,0.00,WeatherCatV1.02B3,2013-11-19 10:36:00,
2013-11-19 04:41:00,49.7,36.0,30.22,North,5,0.0,0.0,59,0.00,,,0.00,WeatherCatV1.02B3,2013-11-19 10:41:00,
2013-11-19 04:46:00,49.7,36.0,30.22,NNW,337,0.0,0.0,59,0.00,,,0.00,WeatherCatV1.02B3,2013-11-19 10:46:00,
2013-11-19 04:51:00,49.6,35.4,30.22,NNW,341,0.0,3.0,58,0.00,,,0.00,WeatherCatV1.02B3,2013-11-19 10:51:00,
2013-11-19 04:56:00,49.5,35.3,30.22,ENE,78,0.0,4.0,58,0.00,,,0.00,WeatherCatV1.02B3,2013-11-19 10:56:00,
2013-11-19 05:01:00,49.4,35.7,30.22,North,11,1.0,1.0,59,0.00,,,0.00,WeatherCatV1.02B3,2013-11-19 11:01:00,
2013-11-19 05:06:00,49.4,35.2,30.22,North,9,0.0,0.0,58,0.00,,,0.00,WeatherCatV1.02B3,2013-11-19 11:06:00,
2013-11-19 05:11:00,49.2,35.5,30.22,WNW,298,0.0,3.0,59,0.00,,,0.00,WeatherCatV1.02B3,2013-11-19 11:11:00,
2013-11-19 05:16:00,49.1,35.0,30.22,North,355,0.0,0.0,58,0.00,,,0.00,WeatherCatV1.02B3,2013-11-19 11:16:00,
2013-11-19 05:21:00,49.0,35.7,30.22,WNW,298,0.0,0.0,60,0.00,,,0.00,WeatherCatV1.02B3,2013-11-19 11:21:00,
2013-11-19 05:26:00,48.8,35.1,30.23,ENE,65,0.0,5.0,59,0.00,,,0.00,WeatherCatV1.02B3,2013-11-19 11:26:00,
2013-11-19 05:31:00,48.7,35.0,30.22,North,5,0.0,3.0,59,0.00,,,0.00,WeatherCatV1.02B3,2013-11-19 11:31:00,
2013-11-19 05:36:00,48.6,34.9,30.23,North,0,5.0,6.0,59,0.00,,,0.00,WeatherCatV1.02B3,2013-11-19 11:36:00,
2013-11-19 05:41:00,48.5,34.8,30.23,NW,319,0.0,3.0,59,0.00,,,0.00,WeatherCatV1.02B3,2013-11-19 11:41:00,
2013-11-19 05:46:00,48.5,34.8,30.23,NE,51,0.0,3.0,59,0.00,,,0.00,WeatherCatV1.02B3,2013-11-19 11:46:00,
2013-11-19 05:51:00,48.3,35.1,30.23,NE,56,0.0,2.0,60,0.00,,,0.00,WeatherCatV1.02B3,2013-11-19 11:51:00,
2013-11-19 05:56:00,48.2,35.0,30.23,NE,42,1.0,1.0,60,0.00,,,0.00,WeatherCatV1.02B3,2013-11-19 11:56:00,
2013-11-19 06:01:00,48.1,34.5,30.23,NNE,21,0.0,2.0,59,0.00,,,0.00,WeatherCatV1.02B3,2013-11-19 12:01:00,
2013-11-19 06:06:00,48.0,34.8,30.23,NNW,348,0.0,1.0,60,0.00,,,0.00,WeatherCatV1.02B3,2013-11-19 12:06:00,
2013-11-19 06:11:00,47.9,34.7,30.24,NNW,348,0.0,1.0,60,0.00,,,0.00,WeatherCatV1.02B3,2013-11-19 12:11:00,
2013-11-19 06:16:00,47.8,34.6,30.24,NNW,332,0.0,3.0,60,0.00,,,0.00,WeatherCatV1.02B3,2013-11-19 12:16:00,
2013-11-19 06:21:00,47.7,34.5,30.24,North,355,0.0,0.0,60,0.00,,,0.00,WeatherCatV1.02B3,2013-11-19 12:21:00,
2013-11-19 06:26:00,47.6,34.8,30.24,ENE,63,0.0,0.0,61,0.00,,,0.00,WeatherCatV1.02B3,2013-11-19 12:26:00,
2013-11-19 06:31:00,47.5,34.3,30.24,NNE,27,0.0,1.0,60,0.00,,,0.00,WeatherCatV1.02B3,2013-11-19 12:31:00,
2013-11-19 06:36:00,47.4,34.2,30.24,North,0,0.0,1.0,60,0.00,,,0.00,WeatherCatV1.02B3,2013-11-19 12:36:00,
2013-11-19 06:41:00,47.4,34.2,30.24,ENE,59,0.0,4.0,60,0.00,,,0.00,WeatherCatV1.02B3,2013-11-19 12:41:00,
2013-11-19 06:46:00,47.4,34.2,30.25,NE,47,0.0,5.0,60,0.00,,,0.00,WeatherCatV1.02B3,2013-11-19 12:46:00,
2013-11-19 06:51:00,47.3,33.7,30.25,NNW,327,0.0,4.0,59,0.00,,,0.00,WeatherCatV1.02B3,2013-11-19 12:51:00,
2013-11-19 06:56:00,47.4,33.8,30.24,NNE,15,0.0,2.0,59,0.00,,,0.00,WeatherCatV1.02B3,2013-11-19 12:56:00,
2013-11-19 07:01:00,47.3,34.1,30.25,North,11,0.0,0.0,60,0.00,,,0.00,WeatherCatV1.02B3,2013-11-19 13:01:00,
2013-11-19 07:06:00,47.3,33.7,30.25,North,10,0.0,3.0,59,0.00,,,0.00,WeatherCatV1.02B3,2013-11-19 13:06:00,
2013-11-19 07:11:00,47.3,34.1,30.25,WNW,296,0.0,0.0,60,0.00,,,0.00,WeatherCatV1.02B3,2013-11-19 13:11:00,
2013-11-19 07:16:00,47.3,34.1,30.25,NE,38,0.0,1.0,60,0.00,,,0.00,WeatherCatV1.02B3,2013-11-19 13:16:00,
2013-11-19 07:21:00,47.3,34.5,30.25,North,5,0.0,4.0,61,0.00,,,0.00,WeatherCatV1.02B3,2013-11-19 13:21:00,
2013-11-19 07:26:00,47.3,34.1,30.25,ENE,70,0.0,3.0,60,0.00,,,0.00,WeatherCatV1.02B3,2013-11-19 13:26:00,
2013-11-19 07:31:00,47.4,34.2,30.25,ESE,107,0.0,2.0,60,0.00,,,0.00,WeatherCatV1.02B3,2013-11-19 13:31:00,
2013-11-19 07:36:00,47.4,34.2,30.25,NNE,19,0.0,1.0,60,0.00,,,0.00,WeatherCatV1.02B3,2013-11-19 13:36:00,
2013-11-19 07:41:00,47.5,34.3,30.25,NNW,340,0.0,0.0,60,0.00,,,0.00,WeatherCatV1.02B3,2013-11-19 13:41:00,
2013-11-19 07:46:00,47.6,34.8,30.25,North,355,0.0,1.0,61,0.00,,,0.00,WeatherCatV1.02B3,2013-11-19 13:46:00,
2013-11-19 07:51:00,47.7,34.5,30.25,North,351,0.0,2.0,60,0.00,,,0.00,WeatherCatV1.02B3,2013-11-19 13:51:00,
2013-11-19 07:56:00,47.7,34.9,30.26,NNE,30,0.0,3.0,61,0.00,,,0.00,WeatherCatV1.02B3,2013-11-19 13:56:00,
2013-11-19 08:01:00,47.8,34.2,30.26,NE,38,0.0,0.0,59,0.00,,,0.00,WeatherCatV1.02B3,2013-11-19 14:01:00,
2013-11-19 08:06:00,47.8,34.2,30.26,NNW,333,0.0,5.0,59,0.00,,,0.00,WeatherCatV1.02B3,2013-11-19 14:06:00,
2013-11-19 08:11:00,47.9,34.3,30.26,NW,317,0.0,2.0,59,0.00,,,0.00,WeatherCatV1.02B3,2013-11-19 14:11:00,
2013-11-19 08:16:00,48.0,33.9,30.26,NW,316,0.0,7.0,58,0.00,,,0.00,WeatherCatV1.02B3,2013-11-19 14:16:00,
2013-11-19 08:21:00,47.9,34.3,30.26,NE,42,0.0,2.0,59,0.00,,,0.00,WeatherCatV1.02B3,2013-11-19 14:21:00,
2013-11-19 08:26:00,48.1,34.9,30.26,NNW,334,1.0,5.0,60,0.00,,,0.00,WeatherCatV1.02B3,2013-11-19 14:26:00,
2013-11-19 08:28:00,48.1,34.5,30.26,WNW,292,0.0,5.0,59,0.00,,,0.00,WeatherCatV1.02B3,2013-11-19 14:28:00,
2013-11-19 08:33:00,48.3,35.1,30.26,NE,52,1.0,3.0,60,0.00,,,0.00,WeatherCatV1.02B3,2013-11-19 14:33:00,
2013-11-19 08:38:00,48.5,34.8,30.27,ENE,61,0.0,5.0,59,0.00,,,0.00,WeatherCatV1.02B3,2013-11-19 14:38:00,
2013-11-19 08:43:00,48.6,34.5,30.27,North,5,0.0,1.0,58,0.00,,,0.00,WeatherCatV1.02B3,2013-11-19 14:43:00,
2013-11-19 08:48:00,48.7,34.6,30.27,NW,304,0.0,4.0,58,0.00,,,0.00,WeatherCatV1.02B3,2013-11-19 14:48:00,
2013-11-19 08:53:00,48.8,34.7,30.27,NNW,341,0.0,0.0,58,0.00,,,0.00,WeatherCatV1.02B3,2013-11-19 14:53:00,
2013-11-19 08:58:00,48.9,34.3,30.27,NNW,333,7.0,7.0,57,0.00,,,0.00,WeatherCatV1.02B3,2013-11-19 14:58:00,
2013-11-19 09:03:00,48.9,33.9,30.27,ENE,65,0.0,2.0,56,0.00,,,0.00,WeatherCatV1.02B3,2013-11-19 15:03:00,
2013-11-19 09:08:00,49.0,34.4,30.27,North,11,0.0,2.0,57,0.00,,,0.00,WeatherCatV1.02B3,2013-11-19 15:08:00,
2013-11-19 09:13:00,49.1,33.6,30.27,NW,304,0.0,2.0,55,0.00,,,0.00,WeatherCatV1.02B3,2013-11-19 15:13:00,
2013-11-19 09:18:00,49.2,34.2,30.27,NNW,331,0.0,6.0,56,0.00,,,0.00,WeatherCatV1.02B3,2013-11-19 15:18:00,
2013-11-19 09:23:00,49.3,34.3,30.27,North,9,0.0,0.0,56,0.00,,,0.00,WeatherCatV1.02B3,2013-11-19 15:23:00,
2013-11-19 09:28:00,49.6,34.6,30.28,NNE,22,1.0,1.0,56,0.00,,,0.00,WeatherCatV1.02B3,2013-11-19 15:28:00,
2013-11-19 09:33:00,49.8,34.3,30.28,NW,318,0.0,2.0,55,0.00,,,0.00,WeatherCatV1.02B3,2013-11-19 15:33:00,
2013-11-19 09:38:00,50.1,34.6,30.28,NE,42,0.0,2.0,55,0.00,,,0.00,WeatherCatV1.02B3,2013-11-19 15:38:00,
2013-11-19 09:43:00,50.3,34.3,30.27,NNE,17,0.0,2.0,54,0.00,,,0.00,WeatherCatV1.02B3,2013-11-19 15:43:00,
2013-11-19 09:48:00,50.5,33.1,30.27,ENE,59,0.0,6.0,51,0.00,,,0.00,WeatherCatV1.02B3,2013-11-19 15:48:00,
2013-11-19 09:53:00,50.5,34.0,30.26,ENE,68,4.0,4.0,53,0.00,,,0.00,WeatherCatV1.02B3,2013-11-19 15:53:00,
2013-11-19 09:58:00,50.6,33.1,30.27,North,0,0.0,3.0,51,0.00,,,0.00,WeatherCatV1.02B3,2013-11-19 15:58:00,
2013-11-19 10:03:00,50.6,34.1,30.27,North,355,0.0,5.0,53,0.00,,,0.00,WeatherCatV1.02B3,2013-11-19 16:03:00,
2013-11-19 10:08:00,50.6,33.1,30.27,North,355,0.0,1.0,51,0.00,,,0.00,WeatherCatV1.02B3,2013-11-19 16:08:00,
2013-11-19 10:13:00,50.7,34.2,30.26,North,351,0.0,2.0,53,0.00,,,0.00,WeatherCatV1.02B3,2013-11-19 16:13:00,
2013-11-19 10:18:00,50.8,33.8,30.26,ENE,57,0.0,2.0,52,0.00,,,0.00,WeatherCatV1.02B3,2013-11-19 16:18:00,
2013-11-19 10:23:00,50.8,34.3,30.26,WNW,294,0.0,0.0,53,0.00,,,0.00,WeatherCatV1.02B3,2013-11-19 16:23:00,
2013-11-19 10:28:00,51.1,33.6,30.26,NW,313,0.0,4.0,51,0.00,,,0.00,WeatherCatV1.02B3,2013-11-19 16:28:00,
2013-11-19 10:33:00,51.1,34.1,30.26,NNW,329,0.0,1.0,52,0.00,,,0.00,WeatherCatV1.02B3,2013-11-19 16:33:00,
2013-11-19 10:38:00,51.1,34.1,30.25,NE,40,0.0,1.0,52,0.00,,,0.00,WeatherCatV1.02B3,2013-11-19 16:38:00,
2013-11-19 10:43:00,51.3,34.8,30.26,NNW,330,3.0,4.0,53,0.00,,,0.00,WeatherCatV1.02B3,2013-11-19 16:43:00,
2013-11-19 10:48:00,51.5,34.0,30.26,North,355,0.0,3.0,51,0.00,,,0.00,WeatherCatV1.02B3,2013-11-19 16:48:00,
2013-11-19 10:53:00,51.6,33.1,30.25,NW,324,3.0,4.0,49,0.00,,,0.00,WeatherCatV1.02B3,2013-11-19 16:53:00,
2013-11-19 10:58:00,51.6,33.6,30.25,North,350,0.0,4.0,50,0.00,,,0.00,WeatherCatV1.02B3,2013-11-19 16:58:00,
2013-11-19 11:03:00,51.7,32.6,30.25,NNW,342,0.0,3.0,48,0.00,,,0.00,WeatherCatV1.02B3,2013-11-19 17:03:00,
2013-11-19 11:08:00,52.2,33.1,30.25,NW,323,0.0,4.0,48,0.00,,,0.00,WeatherCatV1.02B3,2013-11-19 17:08:00,
2013-11-19 11:13:00,52.9,32.1,30.25,NE,44,3.0,7.0,45,0.00,,,0.00,WeatherCatV1.02B3,2013-11-19 17:13:00,
2013-11-19 11:18:00,53.1,31.8,30.24,NNW,345,0.0,1.0,44,0.00,,,0.00,WeatherCatV1.02B3,2013-11-19 17:18:00,
2013-11-19 11:23:00,53.1,32.3,30.24,North,355,0.0,1.0,45,0.00,,,0.00,WeatherCatV1.02B3,2013-11-19 17:23:00,
2013-11-19 11:28:00,53.2,32.4,30.24,North,355,0.0,0.0,45,0.00,,,0.00,WeatherCatV1.02B3,2013-11-19 17:28:00,
2013-11-19 11:33:00,53.5,33.2,30.23,ENE,60,4.0,5.0,46,0.00,,,0.00,WeatherCatV1.02B3,2013-11-19 17:33:00,
2013-11-19 11:35:00,53.7,31.7,30.23,NNW,342,1.0,1.0,43,0.00,,,0.00,WeatherCatV1.02B3,2013-11-19 17:35:00,
2013-11-19 11:40:00,54.1,32.7,30.23,NW,314,3.0,4.0,44,0.00,,,0.00,WeatherCatV1.02B3,2013-11-19 17:40:00,
2013-11-19 11:45:00,54.6,32.0,30.23,NNW,339,0.0,4.0,42,0.00,,,0.00,WeatherCatV1.02B3,2013-11-19 17:45:00,
2013-11-19 11:50:00,55.3,32.0,30.23,NNE,12,3.0,3.0,41,0.00,,,0.00,WeatherCatV1.02B3,2013-11-19 17:50:00,
2013-11-19 11:55:00,55.3,32.6,30.23,North,5,0.0,3.0,42,0.00,,,0.00,WeatherCatV1.02B3,2013-11-19 17:55:00,
2013-11-19 12:00:00,55.0,32.3,30.22,NW,316,0.0,1.0,42,0.00,,,0.00,WeatherCatV1.02B3,2013-11-19 18:00:00,
2013-11-19 12:05:00,55.0,34.6,30.21,NNE,17,0.0,4.0,46,0.00,,,0.00,WeatherCatV1.02B3,2013-11-19 18:05:00,
2013-11-19 12:10:00,55.3,33.8,30.20,NNE,17,0.0,2.0,44,0.00,,,0.00,WeatherCatV1.02B3,2013-11-19 18:10:00,
2013-11-19 12:15:00,55.5,33.4,30.20,NW,319,0.0,3.0,43,0.00,,,0.00,WeatherCatV1.02B3,2013-11-19 18:15:00,
2013-11-19 12:20:00,55.5,33.9,30.20,NNE,13,0.0,0.0,44,0.00,,,0.00,WeatherCatV1.02B3,2013-11-19 18:20:00,
2013-11-19 12:25:00,55.7,33.6,30.20,North,355,1.0,2.0,43,0.00,,,0.00,WeatherCatV1.02B3,2013-11-19 18:25:00,
2013-11-19 12:30:00,55.8,33.6,30.20,NW,306,0.0,4.0,43,0.00,,,0.00,WeatherCatV1.02B3,2013-11-19 18:30:00,
2013-11-19 12:35:00,55.6,34.0,30.19,NNW,342,0.0,5.0,44,0.00,,,0.00,WeatherCatV1.02B3,2013-11-19 18:35:00,
2013-11-19 12:40:00,55.2,33.7,30.19,North,355,0.0,5.0,44,0.00,,,0.00,WeatherCatV1.02B3,2013-11-19 18:40:00,
2013-11-19 12:45:00,54.5,33.6,30.19,NNW,327,0.0,5.0,45,0.00,,,0.00,WeatherCatV1.02B3,2013-11-19 18:45:00,
2013-11-19 12:50:00,54.1,33.8,30.19,North,5,0.0,3.0,46,0.00,,,0.00,WeatherCatV1.02B3,2013-11-19 18:50:00,
2013-11-19 12:55:00,54.1,34.3,30.19,North,0,1.0,5.0,47,0.00,,,0.00,WeatherCatV1.02B3,2013-11-19 18:55:00,
2013-11-19 13:00:00,54.3,34.5,30.19,North,350,0.0,3.0,47,0.00,,,0.00,WeatherCatV1.02B3,2013-11-19 19:00:00,
2013-11-19 13:05:00,55.0,32.9,30.18,WNW,301,0.0,4.0,43,0.00,,,0.00,WeatherCatV1.02B3,2013-11-19 19:05:00,
2013-11-19 13:10:00,55.2,33.1,30.18,North,355,2.0,7.0,43,0.00,,,0.00,WeatherCatV1.02B3,2013-11-19 19:10:00,
2013-11-19 13:15:00,55.7,34.7,30.18,NW,318,0.0,4.0,45,0.00,,,0.00,WeatherCatV1.02B3,2013-11-19 19:15:00,
2013-11-19 13:20:00,56.1,32.7,30.18,North,11,0.0,5.0,41,0.00,,,0.00,WeatherCatV1.02B3,2013-11-19 19:20:00,
2013-11-19 13:25:00,56.1,32.7,30.18,ENE,62,0.0,2.0,41,0.00,,,0.00,WeatherCatV1.02B3,2013-11-19 19:25:00,
2013-11-19 13:30:00,56.2,32.8,30.17,North,355,6.0,8.0,41,0.00,,,0.00,WeatherCatV1.02B3,2013-11-19 19:30:00,
2013-11-19 13:35:00,56.2,31.6,30.17,NNW,348,4.0,8.0,39,0.00,,,0.00,WeatherCatV1.02B3,2013-11-19 19:35:00,
2013-11-19 13:40:00,56.4,33.6,30.17,North,5,1.0,4.0,42,0.00,,,0.00,WeatherCatV1.02B3,2013-11-19 19:40:00,
2013-11-19 13:45:00,56.3,32.3,30.17,NW,319,3.0,7.0,40,0.00,,,0.00,WeatherCatV1.02B3,2013-11-19 19:45:00,
2013-11-19 13:50:00,56.3,31.7,30.16,NNE,19,4.0,6.0,39,0.00,,,0.00,WeatherCatV1.02B3,2013-11-19 19:50:00,
2013-11-19 13:55:00,56.2,31.6,30.16,NNW,329,1.0,4.0,39,0.00,,,0.00,WeatherCatV1.02B3,2013-11-19 19:55:00,
2013-11-19 14:00:00,56.3,31.7,30.17,North,350,1.0,7.0,39,0.00,,,0.00,WeatherCatV1.02B3,2013-11-19 20:00:00,
2013-11-19 14:05:00,56.3,31.7,30.16,NNW,332,0.0,3.0,39,0.00,,,0.00,WeatherCatV1.02B3,2013-11-19 20:05:00,
2013-11-19 14:10:00,56.2,31.6,30.16,NNW,340,4.0,8.0,39,0.00,,,0.00,WeatherCatV1.02B3,2013-11-19 20:10:00,
2013-11-19 14:15:00,56.1,31.5,30.16,WNW,302,0.0,5.0,39,0.00,,,0.00,WeatherCatV1.02B3,2013-11-19 20:15:00,
2013-11-19 14:20:00,56.2,32.2,30.16,WNW,298,0.0,2.0,40,0.00,,,0.00,WeatherCatV1.02B3,2013-11-19 20:20:00,
2013-11-19 14:25:00,56.4,31.8,30.16,NNW,329,2.0,4.0,39,0.00,,,0.00,WeatherCatV1.02B3,2013-11-19 20:25:00,
2013-11-19 14:30:00,56.6,32.6,30.16,NW,307,0.0,1.0,40,0.00,,,0.00,WeatherCatV1.02B3,2013-11-19 20:30:00,
2013-11-19 14:35:00,56.9,32.2,30.16,North,5,0.0,1.0,39,0.00,,,0.00,WeatherCatV1.02B3,2013-11-19 20:35:00,
2013-11-19 14:40:00,57.1,32.4,30.16,NNW,348,0.0,3.0,39,0.00,,,0.00,WeatherCatV1.02B3,2013-11-19 20:40:00,
2013-11-19 14:45:00,57.2,32.5,30.15,NNW,348,0.0,0.0,39,0.00,,,0.00,WeatherCatV1.02B3,2013-11-19 20:45:00,
2013-11-19 14:50:00,57.3,32.6,30.15,NNW,346,0.0,3.0,39,0.00,,,0.00,WeatherCatV1.02B3,2013-11-19 20:50:00,
2013-11-19 14:55:00,57.5,34.0,30.15,NNW,346,0.0,1.0,41,0.00,,,0.00,WeatherCatV1.02B3,2013-11-19 20:55:00,
2013-11-19 15:00:00,57.5,34.0,30.15,NNE,26,0.0,3.0,41,0.00,,,0.00,WeatherCatV1.02B3,2013-11-19 21:00:00,
2013-11-19 15:05:00,57.5,32.1,30.15,NW,311,0.0,2.0,38,0.00,,,0.00,WeatherCatV1.02B3,2013-11-19 21:05:00,
2013-11-19 15:10:00,57.4,32.6,30.15,NNW,336,1.0,5.0,39,0.00,,,0.00,WeatherCatV1.02B3,2013-11-19 21:10:00,
2013-11-19 15:15:00,57.3,31.9,30.15,NNW,346,0.0,2.0,38,0.00,,,0.00,WeatherCatV1.02B3,2013-11-19 21:15:00,
2013-11-19 15:20:00,57.3,31.3,30.15,NNW,340,0.0,3.0,37,0.00,,,0.00,WeatherCatV1.02B3,2013-11-19 21:20:00,
2013-11-19 15:25:00,57.2,31.2,30.15,NNW,333,1.0,5.0,37,0.00,,,0.00,WeatherCatV1.02B3,2013-11-19 21:25:00,
2013-11-19 15:30:00,57.1,31.7,30.15,NNE,33,0.0,3.0,38,0.00,,,0.00,WeatherCatV1.02B3,2013-11-19 21:30:00,
2013-11-19 15:35:00,57.1,31.1,30.15,NNE,16,0.0,2.0,37,0.00,,,0.00,WeatherCatV1.02B3,2013-11-19 21:35:00,
2013-11-19 15:40:00,57.0,31.0,30.15,North,5,0.0,3.0,37,0.00,,,0.00,WeatherCatV1.02B3,2013-11-19 21:40:00,
2013-11-19 15:45:00,56.9,30.9,30.15,NNW,347,0.0,4.0,37,0.00,,,0.00,WeatherCatV1.02B3,2013-11-19 21:45:00,
2013-11-19 15:50:00,56.8,30.1,30.14,NNE,17,3.0,5.0,36,0.00,,,0.00,WeatherCatV1.02B3,2013-11-19 21:50:00,
2013-11-19 15:55:00,56.7,31.4,30.14,ENE,59,0.0,3.0,38,0.00,,,0.00,WeatherCatV1.02B3,2013-11-19 21:55:00,
2013-11-19 16:00:00,56.7,30.7,30.14,NW,317,1.0,2.0,37,0.00,,,0.00,WeatherCatV1.02B3,2013-11-19 22:00:00,
2013-11-19 16:05:00,56.6,31.9,30.15,NNW,333,0.0,4.0,39,0.00,,,0.00,WeatherCatV1.02B3,2013-11-19 22:05:00,
2013-11-19 16:10:00,56.6,31.3,30.15,North,0,0.0,3.0,38,0.00,,,0.00,WeatherCatV1.02B3,2013-11-19 22:10:00,
2013-11-19 16:15:00,56.5,31.8,30.15,NNW,346,2.0,5.0,39,0.00,,,0.00,WeatherCatV1.02B3,2013-11-19 22:15:00,
2013-11-19 16:20:00,56.5,31.8,30.15,North,355,0.0,2.0,39,0.00,,,0.00,WeatherCatV1.02B3,2013-11-19 22:20:00,
2013-11-19 16:25:00,56.3,31.0,30.15,NNW,336,0.0,3.0,38,0.00,,,0.00,WeatherCatV1.02B3,2013-11-19 22:25:00,
2013-11-19 16:30:00,56.2,31.6,30.15,NNW,336,0.0,0.0,39,0.00,,,0.00,WeatherCatV1.02B3,2013-11-19 22:30:00,
2013-11-19 16:35:00,55.9,30.7,30.15,NE,50,0.0,2.0,38,0.00,,,0.00,WeatherCatV1.02B3,2013-11-19 22:35:00,
2013-11-19 16:40:00,55.6,31.0,30.15,NNW,329,1.0,3.0,39,0.00,,,0.00,WeatherCatV1.02B3,2013-11-19 22:40:00,
2013-11-19 16:45:00,55.3,31.4,30.15,NW,323,0.0,0.0,40,0.00,,,0.00,WeatherCatV1.02B3,2013-11-19 22:45:00,
2013-11-19 16:50:00,55.0,31.7,30.15,NW,323,0.0,2.0,41,0.00,,,0.00,WeatherCatV1.02B3,2013-11-19 22:50:00,
2013-11-19 16:55:00,54.7,31.5,30.15,NNW,346,0.0,4.0,41,0.00,,,0.00,WeatherCatV1.02B3,2013-11-19 22:55:00,
2013-11-19 17:00:00,54.4,31.8,30.15,North,355,0.0,1.0,42,0.00,,,0.00,WeatherCatV1.02B3,2013-11-19 23:00:00,
2013-11-19 17:05:00,54.0,31.4,30.15,North,355,0.0,1.0,42,0.00,,,0.00,WeatherCatV1.02B3,2013-11-19 23:05:00,
2013-11-19 17:10:00,53.7,31.7,30.15,North,355,0.0,0.0,43,0.00,,,0.00,WeatherCatV1.02B3,2013-11-19 23:10:00,
2013-11-19 17:15:00,53.4,32.0,30.15,North,355,0.0,0.0,44,0.00,,,0.00,WeatherCatV1.02B3,2013-11-19 23:15:00,
2013-11-19 17:20:00,53.1,31.8,30.15,North,355,0.0,0.0,44,0.00,,,0.00,WeatherCatV1.02B3,2013-11-19 23:20:00,
2013-11-19 17:25:00,52.8,31.5,30.15,North,355,0.0,1.0,44,0.00,,,0.00,WeatherCatV1.02B3,2013-11-19 23:25:00,
2013-11-19 17:30:00,52.6,31.9,30.15,North,355,0.0,0.0,45,0.00,,,0.00,WeatherCatV1.02B3,2013-11-19 23:30:00,
2013-11-19 17:35:00,52.5,31.8,30.15,North,0,0.0,1.0,45,0.00,,,0.00,WeatherCatV1.02B3,2013-11-19 23:35:00,
2013-11-19 17:40:00,52.4,32.8,30.15,North,0,0.0,2.0,47,0.00,,,0.00,WeatherCatV1.02B3,2013-11-19 23:40:00,
2013-11-19 17:45:00,52.2,32.0,30.15,North,0,2.0,3.0,46,0.00,,,0.00,WeatherCatV1.02B3,2013-11-19 23:45:00,
2013-11-19 17:50:00,52.0,32.9,30.15,NNE,28,0.0,1.0,48,0.00,,,0.00,WeatherCatV1.02B3,2013-11-19 23:50:00,
2013-11-19 17:55:00,51.9,32.3,30.15,North,350,0.0,5.0,47,0.00,,,0.00,WeatherCatV1.02B3,2013-11-19 23:55:00,
2013-11-19 18:00:00,51.9,32.3,30.16,NNW,342,0.0,0.0,47,0.00,,,0.00,WeatherCatV1.02B3,2013-11-20 00:00:00,
2013-11-19 18:05:00,51.7,32.6,30.16,NNE,23,0.0,2.0,48,0.00,,,0.00,WeatherCatV1.02B3,2013-11-20 00:05:00,
2013-11-19 18:10:00,51.6,31.5,30.16,ENE,73,0.0,1.0,46,0.00,,,0.00,WeatherCatV1.02B3,2013-11-20 00:10:00,
2013-11-19 18:15:00,51.5,31.4,30.16,NE,34,4.0,4.0,46,0.00,,,0.00,WeatherCatV1.02B3,2013-11-20 00:15:00,
2013-11-19 18:20:00,51.4,30.8,30.16,NE,49,0.0,1.0,45,0.00,,,0.00,WeatherCatV1.02B3,2013-11-20 00:20:00,
2013-11-19 18:25:00,51.2,30.6,30.17,NNE,13,0.0,0.0,45,0.00,,,0.00,WeatherCatV1.02B3,2013-11-20 00:25:00,
2013-11-19 18:30:00,51.1,30.5,30.17,NNE,25,2.0,2.0,45,0.00,,,0.00,WeatherCatV1.02B3,2013-11-20 00:30:00,
2013-11-19 18:35:00,50.8,30.8,30.16,NE,38,0.0,2.0,46,0.00,,,0.00,WeatherCatV1.02B3,2013-11-20 00:35:00,
2013-11-19 18:40:00,50.6,31.1,30.16,NE,38,0.0,0.0,47,0.00,,,0.00,WeatherCatV1.02B3,2013-11-20 00:40:00,
2013-11-19 18:45:00,50.3,31.4,30.17,ENE,59,0.0,4.0,48,0.00,,,0.00,WeatherCatV1.02B3,2013-11-20 00:45:00,
2013-11-19 18:50:00,50.1,31.2,30.17,NNE,31,0.0,0.0,48,0.00,,,0.00,WeatherCatV1.02B3,2013-11-20 00:50:00,
2013-11-19 18:55:00,49.9,31.5,30.16,NNE,30,0.0,2.0,49,0.00,,,0.00,WeatherCatV1.02B3,2013-11-20 00:55:00,
2013-11-19 19:00:00,49.6,31.2,30.16,NNE,19,0.0,1.0,49,0.00,,,0.00,WeatherCatV1.02B3,2013-11-20 01:00:00,
2013-11-19 19:05:00,49.5,31.1,30.16,NE,34,1.0,4.0,49,0.00,,,0.00,WeatherCatV1.02B3,2013-11-20 01:05:00,
2013-11-19 19:10:00,49.3,31.0,30.16,NE,34,0.0,0.0,49,0.00,,,0.00,WeatherCatV1.02B3,2013-11-20 01:10:00,
2013-11-19 19:15:00,49.1,31.3,30.17,ENE,62,0.0,5.0,50,0.00,,,0.00,WeatherCatV1.02B3,2013-11-20 01:15:00,
2013-11-19 19:20:00,49.0,31.7,30.17,North,11,0.0,0.0,51,0.00,,,0.00,WeatherCatV1.02B3,2013-11-20 01:20:00,
2013-11-19 19:25:00,48.8,31.0,30.17,North,11,0.0,0.0,50,0.00,,,0.00,WeatherCatV1.02B3,2013-11-20 01:25:00,
2013-11-19 19:30:00,48.6,30.8,30.17,NNE,13,0.0,1.0,50,0.00,,,0.00,WeatherCatV1.02B3,2013-11-20 01:30:00,
2013-11-19 19:35:00,48.5,31.2,30.16,NE,34,0.0,3.0,51,0.00,,,0.00,WeatherCatV1.02B3,2013-11-20 01:35:00,
2013-11-19 19:40:00,48.3,30.5,30.17,NE,34,0.0,0.0,50,0.00,,,0.00,WeatherCatV1.02B3,2013-11-20 01:40:00,
2013-11-19 19:45:00,48.3,31.0,30.17,NE,34,0.0,0.0,51,0.00,,,0.00,WeatherCatV1.02B3,2013-11-20 01:45:00,
2013-11-19 19:50:00,48.1,30.8,30.17,NE,38,0.0,3.0,51,0.00,,,0.00,WeatherCatV1.02B3,2013-11-20 01:50:00,
2013-11-19 19:55:00,48.1,31.3,30.17,NE,34,0.0,0.0,52,0.00,,,0.00,WeatherCatV1.02B3,2013-11-20 01:55:00,
2013-11-19 20:00:00,47.9,31.1,30.17,NE,34,0.0,0.0,52,0.00,,,0.00,WeatherCatV1.02B3,2013-11-20 02:00:00,
2013-11-19 20:05:00,47.8,31.5,30.17,NNE,30,0.0,2.0,53,0.00,,,0.00,WeatherCatV1.02B3,2013-11-20 02:05:00,
2013-11-19 20:10:00,47.7,30.9,30.17,NE,46,0.0,0.0,52,0.00,,,0.00,WeatherCatV1.02B3,2013-11-20 02:10:00,
2013-11-19 20:15:00,47.5,31.2,30.17,NE,46,0.0,0.0,53,0.00,,,0.00,WeatherCatV1.02B3,2013-11-20 02:15:00,
2013-11-19 20:20:00,47.3,31.5,30.17,NE,48,0.0,0.0,54,0.00,,,0.00,WeatherCatV1.02B3,2013-11-20 02:20:00,
2013-11-19 20:25:00,47.1,31.3,30.17,NE,48,0.0,0.0,54,0.00,,,0.00,WeatherCatV1.02B3,2013-11-20 02:25:00,
2013-11-19 20:30:00,46.9,32.0,30.17,NE,48,0.0,0.0,56,0.00,,,0.00,WeatherCatV1.02B3,2013-11-20 02:30:00,
2013-11-19 20:35:00,46.6,31.8,30.17,NE,48,0.0,0.0,56,0.00,,,0.00,WeatherCatV1.02B3,2013-11-20 02:35:00,
2013-11-19 20:40:00,46.3,31.9,30.17,NE,48,0.0,0.0,57,0.00,,,0.00,WeatherCatV1.02B3,2013-11-20 02:40:00,
2013-11-19 20:45:00,46.0,32.1,30.17,NE,48,0.0,2.0,58,0.00,,,0.00,WeatherCatV1.02B3,2013-11-20 02:45:00,
2013-11-19 20:50:00,45.8,31.9,30.18,NE,48,0.0,0.0,58,0.00,,,0.00,WeatherCatV1.02B3,2013-11-20 02:50:00,
2013-11-19 20:55:00,45.6,31.3,30.18,NE,48,0.0,0.0,57,0.00,,,0.00,WeatherCatV1.02B3,2013-11-20 02:55:00,
2013-11-19 21:00:00,45.6,31.7,30.18,NE,48,0.0,1.0,58,0.00,,,0.00,WeatherCatV1.02B3,2013-11-20 03:00:00,
2013-11-19 21:05:00,45.6,31.7,30.18,NE,48,0.0,1.0,58,0.00,,,0.00,WeatherCatV1.02B3,2013-11-20 03:05:00,
2013-11-19 21:10:00,45.5,31.6,30.18,NE,48,0.0,0.0,58,0.00,,,0.00,WeatherCatV1.02B3,2013-11-20 03:10:00,
2013-11-19 21:15:00,45.5,32.4,30.18,NE,48,0.0,0.0,60,0.00,,,0.00,WeatherCatV1.02B3,2013-11-20 03:15:00,
2013-11-19 21:20:00,45.3,32.2,30.18,NE,48,0.0,0.0,60,0.00,,,0.00,WeatherCatV1.02B3,2013-11-20 03:20:00,
2013-11-19 21:25:00,45.0,32.4,30.18,NE,48,0.0,0.0,61,0.00,,,0.00,WeatherCatV1.02B3,2013-11-20 03:25:00,
2013-11-19 21:30:00,44.7,32.5,30.17,NE,48,0.0,0.0,62,0.00,,,0.00,WeatherCatV1.02B3,2013-11-20 03:30:00,
2013-11-19 21:35:00,44.4,32.2,30.17,NE,48,0.0,0.0,62,0.00,,,0.00,WeatherCatV1.02B3,2013-11-20 03:35:00,
2013-11-19 21:40:00,44.1,32.3,30.17,NE,48,0.0,0.0,63,0.00,,,0.00,WeatherCatV1.02B3,2013-11-20 03:40:00,
2013-11-19 21:45:00,43.8,32.0,30.17,NE,48,0.0,0.0,63,0.00,,,0.00,WeatherCatV1.02B3,2013-11-20 03:45:00,
2013-11-19 21:50:00,43.6,32.2,30.17,NE,48,0.0,0.0,64,0.00,,,0.00,WeatherCatV1.02B3,2013-11-20 03:50:00,
2013-11-19 21:55:00,43.4,32.0,30.17,NE,48,0.0,0.0,64,0.00,,,0.00,WeatherCatV1.02B3,2013-11-20 03:55:00,
2013-11-19 22:00:00,43.1,32.1,30.17,NE,48,0.0,0.0,65,0.00,,,0.00,WeatherCatV1.02B3,2013-11-20 04:00:00,
2013-11-19 22:05:00,42.9,32.3,30.17,NE,48,0.0,0.0,66,0.00,,,0.00,WeatherCatV1.02B3,2013-11-20 04:05:00,
2013-11-19 22:10:00,42.7,32.1,30.17,NE,48,0.0,0.0,66,0.00,,,0.00,WeatherCatV1.02B3,2013-11-20 04:10:00,
2013-11-19 22:15:00,42.5,32.0,30.17,NE,48,0.0,0.0,66,0.00,,,0.00,WeatherCatV1.02B3,2013-11-20 04:15:00,
2013-11-19 22:20:00,42.3,32.5,30.17,NE,48,0.0,0.0,68,0.00,,,0.00,WeatherCatV1.02B3,2013-11-20 04:20:00,
2013-11-19 22:25:00,42.1,31.9,30.17,NE,48,0.0,0.0,67,0.00,,,0.00,WeatherCatV1.02B3,2013-11-20 04:25:00,
2013-11-19 22:30:00,41.9,32.1,30.17,NE,48,0.0,0.0,68,0.00,,,0.00,WeatherCatV1.02B3,2013-11-20 04:30:00,
2013-11-19 22:35:00,41.7,32.3,30.17,NE,48,0.0,0.0,69,0.00,,,0.00,WeatherCatV1.02B3,2013-11-20 04:35:00,
2013-11-19 22:40:00,41.6,32.2,30.17,NE,48,0.0,0.0,69,0.00,,,0.00,WeatherCatV1.02B3,2013-11-20 04:40:00,
2013-11-19 22:45:00,41.4,32.4,30.16,NE,48,0.0,0.0,70,0.00,,,0.00,WeatherCatV1.02B3,2013-11-20 04:45:00,
2013-11-19 22:50:00,41.3,32.3,30.16,NE,48,0.0,0.0,70,0.00,,,0.00,WeatherCatV1.02B3,2013-11-20 04:50:00,
2013-11-19 22:55:00,41.1,32.1,30.16,NE,48,0.0,0.0,70,0.00,,,0.00,WeatherCatV1.02B3,2013-11-20 04:55:00,
2013-11-19 23:00:00,41.0,33.7,30.16,NE,48,0.0,0.0,75,0.00,,,0.00,WeatherCatV1.02B3,2013-11-20 05:00:00,
2013-11-19 23:01:00,41.0,33.7,30.16,NE,48,0.0,0.0,75,0.00,,,0.00,WeatherCatV1.02B3,2013-11-20 05:01:00,
2013-11-19 23:06:00,40.9,32.2,30.16,NE,48,0.0,0.0,71,0.00,,,0.00,WeatherCatV1.02B3,2013-11-20 05:06:00,
2013-11-19 23:11:00,40.7,32.4,30.15,NE,48,0.0,0.0,72,0.00,,,0.00,WeatherCatV1.02B3,2013-11-20 05:11:00,
2013-11-19 23:16:00,40.5,32.2,30.15,NE,48,0.0,0.0,72,0.00,,,0.00,WeatherCatV1.02B3,2013-11-20 05:16:00,
2013-11-19 23:21:00,40.4,32.4,30.15,NE,48,0.0,0.0,73,0.00,,,0.00,WeatherCatV1.02B3,2013-11-20 05:21:00,
2013-11-19 23:26:00,40.2,32.2,30.15,NE,48,0.0,0.0,73,0.00,,,0.00,WeatherCatV1.02B3,2013-11-20 05:26:00,
2013-11-19 23:31:00,40.1,32.5,30.15,NE,48,0.0,0.0,74,0.00,,,0.00,WeatherCatV1.02B3,2013-11-20 05:31:00,
2013-11-19 23:36:00,40.0,32.4,30.15,NE,48,0.0,0.0,74,0.00,,,0.00,WeatherCatV1.02B3,2013-11-20 05:36:00,
2013-11-19 23:41:00,39.9,32.3,30.16,NE,48,0.0,0.0,74,0.00,,,0.00,WeatherCatV1.02B3,2013-11-20 05:41:00,
2013-11-19 23:46:00,39.8,32.2,30.16,NE,48,0.0,0.0,74,0.00,,,0.00,WeatherCatV1.02B3,2013-11-20 05:46:00,
2013-11-19 23:51:00,39.7,32.1,30.16,NE,48,0.0,0.0,74,0.00,,,0.00,WeatherCatV1.02B3,2013-11-20 05:51:00,
2013-11-19 23:56:00,39.6,32.0,30.15,NE,48,0.0,0.0,74,0.00,,,0.00,WeatherCatV1.02B3,2013-11-20 05:56:00,